Location: Kitt Peak
(31.9639°N, 111.5992°W)
Time: 20:35:33
(UTC-07:00)

Amateur Radio Satellites - All Passes

Search period start: 25 September 2017 20:05
Search period end: 26 September 2017 20:05
Location: Kitt Peak, 31.9639°N, 111.5992°W

Satellite Date Start Highest point End Downlink Frequencies (MHz)
Time Altitude Azimuth
SRMSAT 25 Sep 20:37:22 20:41:46 22° 172° (S) 20:46:10 437.500
STRAND 1 25 Sep 20:38:53 20:43:28 33° 289° (WNW) 20:48:02 437.568
DELFI C3 25 Sep 20:41:54 20:45:05 24° 72° (ENE) 20:48:16 145.870
UWE-3 25 Sep 20:50:31 20:52:52 14° 267° (W) 20:55:15 435.000/436.395/437.385
JUGNU 25 Sep 20:56:38 21:00:59 21° 189° (S) 21:05:18 437.505
Max Valier Satellite 25 Sep 21:13:57 21:17:28 43° 75° (ENE) 21:21:01 145.860
Oscar 11 25 Sep 21:23:27 21:26:31 19° 265° (W) 21:29:35 .
AO-73 25 Sep 21:29:07 21:30:31 11° 268° (W) 21:31:55 145.935
UNISAT 6 25 Sep 21:42:07 21:46:21 33° 98° (E) 21:50:33 437.425
FO-29 25 Sep 21:45:39 21:51:22 77° 284° (WNW) 21:57:49 435.910
PRISM 25 Sep 21:54:44 21:57:38 19° 96° (E) 22:00:32 437.425
TIGRISAT 25 Sep 22:04:46 22:09:23 55° 100° (E) 22:13:58 435.000
EO-88 25 Sep 22:09:04 22:12:29 38° 261° (W) 22:15:57 145.990 - 145.960
DELFI C3 25 Sep 22:17:01 22:19:44 18° 265° (W) 22:22:28 145.870
ESTCUBE 1 25 Sep 22:18:11 22:21:17 18° 69° (ENE) 22:24:23 437.505/2401.250
SRMSAT 25 Sep 22:25:38 22:30:21 25° 182° (S) 22:35:05 437.500
SO-50 25 Sep 22:29:15 22:33:51 71° 61° (ENE) 22:38:30 436.795
PCSat 25 Sep 22:35:28 22:39:44 23° 56° (NE) 22:43:59 145.827
AIST 2D 25 Sep 22:40:05 22:40:47 10° 93° (E) 22:41:29 435.315
YUBILEINY 25 Sep 22:42:42 22:51:05 49° 79° (E) 22:59:27 435.215
JUGNU 25 Sep 22:47:40 22:49:20 11° 198° (SSW) 22:51:01 437.505
LO-87 25 Sep 22:56:54 23:00:24 86° 76° (ENE) 23:03:56 145.935 - 145.965
UNISAT 6 25 Sep 23:19:24 23:22:45 20° 291° (WNW) 23:26:07 437.425
DUCHIFAT 1 25 Sep 23:20:54 23:21:54 11° 93° (E) 23:22:54 145.980
PRISM 25 Sep 23:29:32 23:32:49 24° 289° (WNW) 23:36:06 437.425
POLYITAN 1 25 Sep 23:36:24 23:39:53 24° 97° (E) 23:43:20 437.675
EO-79 25 Sep 23:39:49 23:43:25 26° 97° (E) 23:46:59 145.935-145.965
TIGRISAT 25 Sep 23:43:43 23:45:32 12° 293° (WNW) 23:47:20 435.000
SPROUT 25 Sep 23:50:11 23:54:14 46° 75° (ENE) 23:58:18 437.525
ESTCUBE 1 25 Sep 23:53:44 23:57:48 32° 262° (W) 00:01:52 437.505/2401.250
QB50P2 25 Sep 23:53:58 23:58:05 44° 99° (E) 00:02:09 145.880/145.840
VELOX 1 26 Sep 00:10:44 00:15:03 60° 75° (ENE) 00:19:23 145.980
AIST 2D 26 Sep 00:10:56 00:14:01 29° 286° (WNW) 00:17:04 435.315
SRMSAT 26 Sep 00:14:56 00:18:56 19° 192° (SSW) 00:22:56 437.500
PCSat 26 Sep 00:18:11 00:23:11 39° 251° (WSW) 00:28:10 145.827
NANOSAT C BR1 26 Sep 00:26:32 00:30:49 89° 287° (WNW) 00:35:05 145.865
O/OREOS (USA 219) 26 Sep 00:26:56 00:29:35 15° 99° (E) 00:32:13 437.305
YUBILEINY 26 Sep 00:40:14 00:47:23 29° 275° (W) 00:54:35 435.215
M-CUBED/EXP-1 PRIME 26 Sep 00:50:16 00:53:08 28° 103° (ESE) 00:55:59 437.505
Tancredo 1 26 Sep 00:53:29 00:55:47 25° 40° (NE) 00:58:05 437.200
DUCHIFAT 1 26 Sep 00:53:39 00:57:44 46° 285° (WNW) 01:01:47 145.980
UKube-1 26 Sep 00:59:03 01:02:50 31° 72° (ENE) 01:06:37 .
DX 1 26 Sep 01:11:00 01:15:19 74° 76° (ENE) 01:19:38 434.975-435.025
POLYITAN 1 26 Sep 01:12:10 01:15:29 22° 289° (WNW) 01:18:47 437.675
EO-79 26 Sep 01:15:50 01:18:57 20° 290° (WNW) 01:22:04 145.935-145.965
BUGSAT 1 26 Sep 01:18:06 01:22:21 78° 103° (ESE) 01:26:35 437.445
50 SAT 26 Sep 01:21:58 01:25:08 45° 260° (W) 01:28:18 437.505
Oscar 19 26 Sep 01:29:06 01:33:57 41° 99° (E) 01:38:45 437.125/150
nSIGHT-1 26 Sep 01:29:13 01:30:32 12° 32° (NNE) 01:31:50 .
SPROUT 26 Sep 01:29:30 01:30:18 10° 267° (W) 01:31:06 437.525
QB50P2 26 Sep 01:31:41 01:33:24 12° 293° (WNW) 01:35:08 145.880/145.840
Gurwin Techsat 1B 26 Sep 01:35:33 01:40:15 31° 98° (E) 01:44:55 435.225
O/OREOS (USA 219) 26 Sep 02:04:29 02:08:35 35° 293° (WNW) 02:12:46 437.305
ITUPSAT 1 26 Sep 02:17:10 02:21:06 26° 70° (ENE) 02:25:04 437.325
Tancredo 1 26 Sep 02:28:48 02:29:59 12° 233° (SW) 02:31:09 437.200
ISS 26 Sep 02:29:55 02:33:02 39° 41° (NE) 02:36:08 437.550
UKube-1 26 Sep 02:36:06 02:38:52 17° 265° (W) 02:41:36 .
ITAMSAT 1 26 Sep 02:43:20 02:44:12 10° 92° (E) 02:45:04 435.822/435.867
BEESAT 26 Sep 02:51:04 02:55:46 65° 75° (ENE) 03:00:30 436.000
MOZHAYETS 4 26 Sep 02:58:22 03:02:57 77° 77° (ENE) 03:07:35
nSIGHT-1 26 Sep 03:03:55 03:07:09 66° 227° (SW) 03:10:22 .
Oscar 19 26 Sep 03:09:23 03:12:53 19° 293° (WNW) 03:16:22 437.125/150
Gurwin Techsat 1B 26 Sep 03:15:42 03:19:59 26° 291° (WNW) 03:24:16 435.225
BEESAT 3 26 Sep 03:28:40 03:32:04 27° 56° (ENE) 03:35:23 437.485
CUBESAT XI-V 26 Sep 03:32:29 03:36:42 34° 72° (ENE) 03:40:55 437.345
AO-7 26 Sep 03:34:48 03:42:52 53° 103° (ESE) 03:50:53 .
BEESAT 2 26 Sep 03:43:55 03:45:37 12° 51° (NE) 03:47:18 435.950
ITUPSAT 1 26 Sep 03:54:55 03:58:47 25° 263° (W) 04:02:42 437.325
AO-85 26 Sep 03:55:00 03:58:26 21° 55° (NE) 04:02:01 145.980
RS-15 26 Sep 03:59:51 04:11:39 60° 110° (ESE) 04:23:38 29.354- 29.394
ISS 26 Sep 04:07:37 04:09:13 13° 234° (SW) 04:10:47 437.550
ITAMSAT 1 26 Sep 04:18:50 04:24:01 69° 286° (WNW) 04:29:11 435.822/435.867
KKS-1 26 Sep 04:35:00 04:39:18 57° 75° (ENE) 04:43:38 437.445
STARS 26 Sep 04:51:43 04:55:34 32° 72° (ENE) 04:59:27 437.465
DOVE 4 26 Sep 04:59:25 05:03:07 26° 98° (E) 05:06:58 437.250
BEESAT 3 26 Sep 05:06:42 05:09:22 18° 251° (WSW) 05:12:00 437.485
CUBESAT XI-V 26 Sep 05:10:51 05:14:04 18° 265° (W) 05:17:18 437.345
BEESAT 2 26 Sep 05:19:43 05:23:36 47° 246° (WSW) 05:27:24 435.950
AO-7 26 Sep 05:28:21 05:35:08 29° 298° (WNW) 05:41:56 .
XW-2D 26 Sep 05:31:03 05:32:44 13° 94° (E) 05:34:25 145.860 - 145.880
AO-85 26 Sep 05:34:36 05:38:52 37° 246° (WSW) 05:43:24 145.980
XW-2F 26 Sep 05:40:35 05:42:51 15° 95° (E) 05:45:06 145.980 - 146.000
XW-2B 26 Sep 05:42:41 05:45:17 17° 95° (E) 05:47:50 145.730 - 145.750
NUDT-PHONESAT 26 Sep 05:54:00 05:56:28 17° 95° (E) 05:58:54 437.300
XW-2C 26 Sep 06:03:26 06:06:55 34° 98° (E) 06:10:21 145.795 - 145.815
STRAND 1 26 Sep 06:11:56 06:15:34 20° 68° (ENE) 06:19:13 437.568
RS-15 26 Sep 06:13:30 06:24:38 39° 310° (NW) 06:35:53 29.354- 29.394
LilacSat-2 26 Sep 06:19:01 06:22:48 64° 100° (E) 06:26:33 437.200
KAITUO 1B 26 Sep 06:26:13 06:29:51 51° 100° (E) 06:33:26 145.475/437.950
CUTE-I 26 Sep 06:27:25 06:32:39 54° 101° (E) 06:37:51 437.470
STARS 26 Sep 06:29:11 06:31:55 16° 265° (W) 06:34:39 437.465
DOVE 4 26 Sep 06:37:23 06:40:38 21° 288° (WNW) 06:44:00 437.250
XW-2D 26 Sep 07:03:36 07:06:56 30° 287° (WNW) 07:10:14 145.860 - 145.880
CUBEBUG 2 26 Sep 07:06:13 07:09:52 22° 95° (E) 07:13:29 437.445
UWE-3 26 Sep 07:08:36 07:10:20 12° 92° (E) 07:12:03 435.000/436.395/437.385
SEEDS 26 Sep 07:08:41 07:11:59 22° 96° (E) 07:15:14 437.485
XW-2F 26 Sep 07:13:49 07:16:55 24° 287° (WNW) 07:19:59 145.980 - 146.000
XW-2B 26 Sep 07:16:23 07:19:20 22° 288° (WNW) 07:22:16 145.730 - 145.750
AAUSAT CUBESAT 2 26 Sep 07:23:29 07:25:28 13° 94° (E) 07:27:26 437.432
NUDT-PHONESAT 26 Sep 07:27:21 07:30:13 22° 288° (WNW) 07:33:05 437.300
HO-68 26 Sep 07:31:37 07:38:47 69° 103° (ESE) 07:45:56 435.675
XW-2C 26 Sep 07:39:23 07:40:42 12° 291° (WNW) 07:42:01 145.795 - 145.815
CUTE 1.7 + AOD 2 26 Sep 07:41:47 07:45:59 75° 283° (WNW) 07:50:10 437.475
AO-73 26 Sep 07:44:14 07:46:33 14° 93° (E) 07:48:51 145.935
ZACube-1 26 Sep 07:48:13 07:51:21 18° 94° (E) 07:54:25 437.345
STRAND 1 26 Sep 07:49:45 07:54:25 37° 261° (W) 07:59:08 437.568
FO-29 26 Sep 07:54:45 07:59:08 24° 70° (ENE) 08:03:17 435.910
CUTE-I 26 Sep 08:09:09 08:12:10 15° 294° (WNW) 08:15:12 437.470
XW-2A 26 Sep 08:27:40 08:30:52 38° 285° (WNW) 08:34:02 145.665 - 145.685
UNISAT 6 26 Sep 08:37:26 08:39:59 15° 68° (ENE) 08:42:34 437.425
RS-15 26 Sep 08:38:07 08:42:15 12° 342° (NNW) 08:46:22 29.354- 29.394
CUBEBUG 2 26 Sep 08:42:17 08:46:23 30° 288° (WNW) 08:50:29 437.445
UWE-3 26 Sep 08:42:27 08:46:59 51° 285° (WNW) 08:51:28 435.000/436.395/437.385
SEEDS 26 Sep 08:44:19 08:47:30 21° 289° (WNW) 08:50:39 437.485
AAUSAT CUBESAT 2 26 Sep 08:57:15 09:00:59 34° 286° (WNW) 09:04:41 437.432
TIGRISAT 26 Sep 08:59:07 09:02:38 25° 71° (ENE) 09:06:15 435.000
Oscar 11 26 Sep 09:13:56 09:18:14 70° 284° (WNW) 09:22:30 .
AO-73 26 Sep 09:18:36 09:22:54 42° 286° (WNW) 09:27:08 145.935
HO-68 26 Sep 09:21:04 09:25:47 19° 299° (WNW) 09:30:29 435.675
ZACube-1 26 Sep 09:23:32 09:27:37 33° 287° (WNW) 09:31:39 437.345
FO-29 26 Sep 09:38:55 09:44:05 33° 261° (W) 09:48:53 435.910
EO-88 26 Sep 09:42:40 09:45:35 22° 96° (E) 09:48:28 145.990 - 145.960
DELFI C3 26 Sep 09:57:05 10:01:00 78° 102° (ESE) 10:04:53 145.870
UNISAT 6 26 Sep 10:12:21 10:16:19 36° 262° (W) 10:20:24 437.425
PRISM 26 Sep 10:12:47 10:16:52 70° 259° (WSW) 10:20:56 437.425
Max Valier Satellite 26 Sep 10:21:57 10:25:38 63° 283° (WNW) 10:29:18 145.860
EO-79 26 Sep 10:29:58 10:30:51 11° 67° (ENE) 10:31:45 145.935-145.965
TIGRISAT 26 Sep 10:35:56 10:39:14 21° 265° (W) 10:42:36 435.000
AIST 2D 26 Sep 10:39:44 10:43:02 37° 75° (ENE) 10:46:20 435.315
O/OREOS (USA 219) 26 Sep 10:41:09 10:43:49 15° 61° (ENE) 10:46:28 437.305
QB50P2 26 Sep 10:42:38 10:45:27 18° 70° (ENE) 10:48:18 145.880/145.840
RS-15 26 Sep 10:58:11 11:03:10 13° 22° (NNE) 11:08:03 29.354- 29.394
NO-84 26 Sep 11:03:50 11:07:57 75° 128° (SE) 11:11:46 435.350 FM
NANOSAT C BR1 26 Sep 11:13:44 11:17:29 33° 73° (ENE) 11:21:16 145.865
EO-88 26 Sep 11:16:45 11:19:00 16° 289° (WNW) 11:21:15 145.990 - 145.960
M-CUBED/EXP-1 PRIME 26 Sep 11:31:19 11:34:32 21° 68° (ENE) 11:37:35 437.505
YUBILEINY 26 Sep 11:37:01 11:45:35 66° 92° (E) 11:54:10 435.215
DUCHIFAT 1 26 Sep 11:39:58 11:44:04 63° 75° (ENE) 11:48:13 145.980
SPROUT 26 Sep 11:42:39 11:44:09 12° 93° (E) 11:45:38 437.525
ESTCUBE 1 26 Sep 11:50:23 11:54:52 76° 102° (ESE) 11:59:19 437.505/2401.250
POLYITAN 1 26 Sep 11:58:38 12:02:45 55° 260° (W) 12:06:54 437.675
LO-87 26 Sep 12:01:41 12:05:00 36° 285° (WNW) 12:08:20 145.935 - 145.965
EO-79 26 Sep 12:02:03 12:06:06 49° 260° (W) 12:10:12 145.935-145.965
BUGSAT 1 26 Sep 12:03:22 12:06:42 26° 72° (ENE) 12:10:04 437.445
VELOX 1 26 Sep 12:06:37 12:09:24 16° 95° (E) 12:12:12 145.980
QB50P2 26 Sep 12:17:22 12:20:59 28° 263° (W) 12:24:39 145.880/145.840
O/OREOS (USA 219) 26 Sep 12:19:03 12:23:23 42° 256° (WSW) 12:27:41 437.305
SO-50 26 Sep 12:38:39 12:43:06 72° 117° (ESE) 12:47:35 436.795
Oscar 19 26 Sep 12:41:05 12:45:49 37° 72° (ENE) 12:50:34 437.125/150
NO-84 26 Sep 12:44:02 12:45:38 12° 322° (NW) 12:47:11 435.350 FM
50 SAT 26 Sep 12:48:23 12:49:29 11° 95° (E) 12:50:37 437.505
NANOSAT C BR1 26 Sep 12:50:54 12:53:14 15° 266° (W) 12:55:34 145.865
Gurwin Techsat 1B 26 Sep 12:51:56 12:56:33 32° 70° (ENE) 13:01:12 435.225
DX 1 26 Sep 13:04:53 13:07:54 18° 96° (E) 13:10:54 434.975-435.025
M-CUBED/EXP-1 PRIME 26 Sep 13:05:12 13:08:46 25° 257° (WSW) 13:12:08 437.505
RS-15 26 Sep 13:08:53 13:20:07 44° 52° (NE) 13:30:42 29.354- 29.394
PCSat 26 Sep 13:11:15 13:16:30 54° 111° (ESE) 13:21:47 145.827
SPROUT 26 Sep 13:16:06 13:20:11 44° 286° (WNW) 13:24:15 437.525
YUBILEINY 26 Sep 13:36:42 13:42:56 21° 289° (WNW) 13:49:12 435.215
BUGSAT 1 26 Sep 13:39:20 13:42:00 17° 265° (W) 13:44:42 437.445
VELOX 1 26 Sep 13:41:57 13:45:52 32° 287° (WNW) 13:49:46 145.980
ITAMSAT 1 26 Sep 13:57:02 13:58:11 11° 63° (ENE) 13:59:22 435.822/435.867
50 SAT 26 Sep 14:19:14 14:21:57 24° 287° (WNW) 14:24:39 437.505
Oscar 19 26 Sep 14:21:22 14:25:10 20° 265° (W) 14:28:58 437.125/150
SO-50 26 Sep 14:22:56 14:24:01 11° 312° (NW) 14:25:07 436.795
UKube-1 26 Sep 14:25:57 14:30:13 70° 284° (WNW) 14:34:29 .
AO-7 26 Sep 14:28:21 14:36:13 48° 67° (ENE) 14:44:03 .
Gurwin Techsat 1B 26 Sep 14:32:08 14:36:25 25° 264° (W) 14:40:45 435.225
DX 1 26 Sep 14:40:18 14:44:01 29° 289° (WNW) 14:47:45 434.975-435.025
BEESAT 26 Sep 14:56:35 15:00:28 24° 97° (E) 15:04:19 436.000
PCSat 26 Sep 14:56:37 15:00:11 18° 307° (NW) 15:03:46 145.827
MOZHAYETS 4 26 Sep 14:58:45 15:02:37 26° 97° (E) 15:06:26
JUGNU 26 Sep 15:18:50 15:20:32 11° 162° (SSE) 15:22:13 437.505
RS-15 26 Sep 15:21:32 15:32:30 48° 252° (WSW) 15:42:56 29.354- 29.394
ITAMSAT 1 26 Sep 15:31:49 15:36:57 74° 257° (WSW) 15:42:08 435.822/435.867
CUBESAT XI-V 26 Sep 15:35:51 15:37:30 12° 93° (E) 15:39:10 437.345
ITUPSAT 1 26 Sep 15:59:08 16:03:54 67° 285° (WNW) 16:08:39 437.325
DOVE 4 26 Sep 16:01:34 16:04:05 15° 70° (ENE) 16:06:32 437.250
AO-7 26 Sep 16:21:53 16:29:01 32° 261° (W) 16:36:13 .
KKS-1 26 Sep 16:31:51 16:34:37 16° 95° (E) 16:37:21 437.445
BEESAT 26 Sep 16:34:07 16:38:07 27° 290° (WNW) 16:42:06 436.000
MOZHAYETS 4 26 Sep 16:35:56 16:39:35 23° 290° (WNW) 16:43:13
LilacSat-2 26 Sep 16:57:05 16:59:29 16° 70° (ENE) 17:01:55 437.200
KAITUO 1B 26 Sep 17:03:06 17:04:40 12° 69° (ENE) 17:06:14 145.475/437.950
JUGNU 26 Sep 17:04:33 17:08:55 21° 170° (S) 17:13:17 437.505
Tancredo 1 26 Sep 17:07:50 17:10:29 86° 137° (SE) 17:13:08 437.200
CUBESAT XI-V 26 Sep 17:10:38 17:15:05 49° 285° (WNW) 17:19:29 437.345
BEESAT 3 26 Sep 17:14:38 17:16:49 14° 109° (ESE) 17:19:02 437.485
ISS 26 Sep 17:31:38 17:33:05 12° 126° (SE) 17:34:32 437.550
DOVE 4 26 Sep 17:37:27 17:41:30 34° 261° (W) 17:45:23 437.250
XW-2D 26 Sep 17:39:04 17:42:49 56° 76° (ENE) 17:46:36 145.860 - 145.880
CUTE-I 26 Sep 17:44:22 17:49:31 55° 73° (ENE) 17:54:41 437.470
XW-2F 26 Sep 17:48:38 17:52:26 70° 76° (ENE) 17:56:15 145.980 - 146.000
XW-2B 26 Sep 17:51:28 17:55:17 82° 78° (ENE) 17:59:09 145.730 - 145.750
HO-68 26 Sep 17:55:33 18:01:37 31° 66° (ENE) 18:07:41 435.675
NUDT-PHONESAT 26 Sep 18:00:20 18:04:03 74° 78° (ENE) 18:07:48 437.300
nSIGHT-1 26 Sep 18:02:38 18:05:34 34° 130° (SE) 18:08:30 .
AO-85 26 Sep 18:06:14 18:08:32 15° 110° (ESE) 18:10:51 145.980
KKS-1 26 Sep 18:07:10 18:11:12 34° 287° (WNW) 18:15:13 437.445
XW-2C 26 Sep 18:13:11 18:16:52 47° 261° (W) 18:20:36 145.795 - 145.815
STARS 26 Sep 18:21:16 18:25:37 63° 284° (WNW) 18:29:59 437.465
CUTE 1.7 + AOD 2 26 Sep 18:29:16 18:33:14 38° 74° (ENE) 18:37:13 437.475
LilacSat-2 26 Sep 18:30:14 18:33:30 26° 263° (W) 18:36:47 437.200
KAITUO 1B 26 Sep 18:34:52 18:38:17 33° 262° (W) 18:41:44 145.475/437.950
SRMSAT 26 Sep 18:37:24 18:40:14 14° 164° (SSE) 18:43:04 437.500
BEESAT 3 26 Sep 18:50:23 18:54:02 34° 302° (WNW) 18:57:43 437.485
JUGNU 26 Sep 18:52:34 18:57:23 25° 180° (S) 19:02:10 437.505
XW-2A 26 Sep 18:53:58 18:56:48 25° 73° (ENE) 18:59:40 145.665 - 145.685
BEESAT 2 26 Sep 19:05:36 19:09:34 87° 297° (WNW) 19:13:37 435.950
ISS 26 Sep 19:06:09 19:09:15 40° 319° (NW) 19:12:21 437.550
NO-84 26 Sep 19:19:07 19:21:59 44° 47° (NE) 19:24:42 435.350 FM
CUTE-I 26 Sep 19:27:09 19:29:48 14° 267° (W) 19:32:28 437.470
SEEDS 26 Sep 19:29:41 19:33:51 61° 259° (W) 19:38:03 437.485
UWE-3 26 Sep 19:34:00 19:38:15 68° 77° (ENE) 19:42:39 435.000/436.395/437.385
CUBEBUG 2 26 Sep 19:34:44 19:38:54 61° 260° (W) 19:43:14 437.445
nSIGHT-1 26 Sep 19:39:43 19:41:57 17° 325° (NW) 19:44:11 .
AAUSAT CUBESAT 2 26 Sep 19:41:33 19:45:41 75° 77° (ENE) 19:49:50 437.432
HO-68 26 Sep 19:42:25 19:49:03 41° 260° (W) 19:55:45 435.675
AO-85 26 Sep 19:45:12 19:48:37 29° 303° (WNW) 19:52:02 145.980
